COMPLETED DISPATCHED CALLS FOR SERVICE

Welcome to the Jacksonville Sheriff’s Office Completed Dispatched Calls for Service webpage. This page displays calls for service made to the Jacksonville Sheriff's Office that have recently been completed. The data on this page is refreshed automatically.

This information is not intended to be used as official crime data. This program does not provide information about all crimes, and excludes specific incidents such as sexual assaults and child abuse.

Disclaimer: The Jacksonville Sheriff's Office makes every effort to produce and publish current and accurate information. No warranties, expressed or implied, are provided for the data herein, its use, or its interpretation. The services provided are for informational purposes only and should not be relied on for any type of legal action.

Last refreshed 8/3 06:22:20

Incident # Dispatched Block Address Signal Call Description  
202100460170 8-3 00:22 2500 BEAVER ST W 88P ASSAULT IN PROGRESS
202100459861 8-3 00:18 8700 PALM BREEZE RD 54 ILLEGALLY PARKED CAR
202100460164 8-3 00:16 ATL/KEN 1050 TRAFFIC STOP
202100460157 8-3 00:11 I95 N OFF RAMP / EMERSON ST 4 AUTO CRASH
202100460152 8-3 00:09 800 ARLINGTON RD N 1050 TRAFFIC STOP
202100460145 8-3 00:05 900 ARLINGTON RD N 6388 DISPUTE WITH ASSAULT
202100460147 8-3 00:05 3000 CHRISTOPHER GADSDEN CT 14C VANDALISM CONVEYANCE
202100460125 8-3 00:03 3100 PHILIPS HWY 61 FIGHT
202100459971 8-3 00:02 I295 S OFF RAMP / ALTA DR 16 ROAD OBSTRUCTION
202100460078 8-3 00:00 100 17TH ST W 80 PROSTITUTION (ONLY)
202100459918 8-3 00:00 I295 S OFF RAMP / SAN JOSE BLVD 16 ROAD OBSTRUCTION
202100459903 8-3 00:00 I295 S OFF RAMP / OLD ST AUGUSTINE RD 16 ROAD OBSTRUCTION
202100460075 8-2 23:59 1800 DAVIS ST N 63 DISPUTE
202100459820 8-2 23:58 13000 GRAN BAY PKWY 64 NOISE COMPLAINT
202100460133 8-2 23:56 6000 KELLOW DR 64 NOISE COMPLAINT
202100460104 8-2 23:55 7000 NORMANDY BLVD 88J ASSAULT JUST OCCURRED
202100460140 8-2 23:53 SAN PABLO RD S / COCOANUT RD 1050 TRAFFIC STOP
202100460129 8-2 23:53 3400 VOLLEY CT 2 22 DOMESTIC DISTURBANCE
202100460092 8-2 23:52 5300 ARLINGTON EXPY 63 DISPUTE
202100460135 8-2 23:50 SPRINGROVE ST / 30TH ST W 13 SUSPICIOUS PERSON
202100460132 8-2 23:48 I295 S OFF RAMP / MERRILL RD 1050 TRAFFIC STOP
202100460131 8-2 23:48 2700 SOUTHSIDE BLVD 1050 TRAFFIC STOP
202100460128 8-2 23:45 SPRINGROVE ST / 30TH ST W 13 SUSPICIOUS PERSON
202100460124 8-2 23:45 2300 TOWNSEND BLVD 63 DISPUTE
202100460126 8-2 23:45 I295 EXPY N / SOUTHSIDE CONNECTOR BLVD 1050 TRAFFIC STOP
202182014688 8-2 23:44 EDGAR ST / MAYPORT RD 1050 TRAFFIC STOP
202100460118 8-2 23:44 7900 SMYRNA ST 22 DOMESTIC
202182014687 8-2 23:42 951(1000) BLK MAYPORT RD 38 TRAFFIC ASSIGNMENT
202100460100 8-2 23:41 1300 KINGS RD 68 CON GAME/FLIM FLAM
202100460114 8-2 23:39 15100 NORMANDY BLVD 76 ASSIST OTHER AGENCY
202100460079 8-2 23:37 6500 COLLINS RD 64 NOISE COMPLAINT
202100460111 8-2 23:36 4060(4000) BLK HECKSCHER DR 1050 TRAFFIC STOP
202100460102 8-2 23:34 13000 PECHORA CT 12 RECKLESS DRIVER
202100460089 8-2 23:34 2600 CASSIA LN 13 SUSPICIOUS PERSON
202100460086 8-2 23:30 100 BERNARD RD 63 DISPUTE
202100460099 8-2 23:27 5800 EDENFIELD RD 63 DISPUTE
202100460097 8-2 23:27 4800 VERMONT RD 27 MENTALLY ILL PERSON
202100460098 8-2 23:26 HECKSCHER DR / MILTON DR 1050 TRAFFIC STOP
202100460046 8-2 23:26 5000 KNIGHTSBRIDGE CIR N 27 MENTALLY ILL PERSON
202100460094 8-2 23:24 SEABOARD AVE / 101ST ST 1050 TRAFFIC STOP
202100460081 8-2 23:21 700 VALLEY FORGE RD 22 DOMESTIC
202100460058 8-2 23:17 500 BAY ST E 22 DOMESTIC
202100460026 8-2 23:16 9700 BEACH BLVD 63 DISPUTE
202100460044 8-2 23:15 1400 MCCONIHE ST 64 NOISE COMPLAINT
202100460076 8-2 23:15 3400 GLEN ST 63 DISPUTE
202100460073 8-2 23:14 1500 25TH ST W 2 63 DISPUTE IMPAIRED/INTOXICATED
202100460047 8-2 23:12 10100 BAYMEADOWS RD 64 NOISE COMPLAINT
202100460071 8-2 23:09 ATL/QUEEN 1050 TRAFFIC STOP
202100460069 8-2 23:08 NORMANDY BLVD / I295 N OFF RAMP 1050 TRAFFIC STOP
202100460066 8-2 23:05 4400 HECKSCHER DR 1050 TRAFFIC STOP
202100460039 8-2 23:05 100 KERNAN BLVD N 63 DISPUTE
202100460063 8-2 23:04 1000 BRANDYWINE ST 22 DOMESTIC
202100460065 8-2 23:04 LANE AVE S / RAMONA BLVD 1050 TRAFFIC STOP
202100460064 8-2 23:04 HECKSCHER DR 38 TRAFFIC ASSIGNMENT
202100460057 8-2 23:02 1000 UNDERHILL DR 63 DISPUTE
202100460061 8-2 23:01 ATLANTIC BLVD / ICW ATLANTIC BRG W 1050 TRAFFIC STOP
202100460060 8-2 22:59 4400 EMERSON EXPY 13 SUSPICIOUS PERSON
202100460045 8-2 22:57 7100 SHINDLER DR 0 88J ARMED ASSAULT JUST OCCURRED
202100460056 8-2 22:55 HECKSCHER DR / I295 N OFF RAMP 13 SUSPICIOUS PERSON
202100460052 8-2 22:53 103RD ST / JAMMES RD 1050 TRAFFIC STOP
202100459980 8-2 22:49 12900 BROXTON BAY DR 73 DRUG INVESTIGATION
202100460050 8-2 22:47 1400 MANOTAK AVE 33 DISCHARGING OF FIREARM
202100460032 8-2 22:47 2000 DELLWOOD AVE 63 DISPUTE
202100460042 8-2 22:43 7000 CAMFIELD LANDING DR 13 SUSPICIOUS PERSON
202100460038 8-2 22:40 PRITCHARD RD / BULLS BAY HWY 16 ROAD OBSTRUCTION
202100460008 8-2 22:39 4100 WOODLEY CREEK RD 64 NOISE COMPLAINT
202100460040 8-2 22:38 500 OCEAN ST N 63 DISPUTE
202100460033 8-2 22:37 5800 UNIVERSITY BLVD W 13 SUSPICIOUS PERSON
202100459986 8-2 22:36 1000 FANTASY DR 63 DISPUTE
202100460028 8-2 22:35 5400 KINKAID RD 37 UNVERIFIED 911 CALL
202100460024 8-2 22:34 1100 KENDALL TOWN BLVD 63 DISPUTE
202100460029 8-2 22:34 1500 MARGARET ST 0 13 ARMED SUSPICIOUS PERSON
202100459878 8-2 22:33 I295 S OFF RAMP / JTB W ON RAMP 16 ROAD OBSTRUCTION
202100460030 8-2 22:33 7800 NORMANDY BLVD 76 ASSIST OTHER AGENCY
202100459781 8-2 22:32 I295 N OFF RAMP / BAYMEADOWS RD 16 ROAD OBSTRUCTION
202100460025 8-2 22:30 ARLINGTON RD N / LILLIAN RD 1050 TRAFFIC STOP
202100460021 8-2 22:29 9400 ATLANTIC BLVD 13 SUSPICIOUS PERSON
202100459786 8-2 22:28 10000 BELLE RIVE BLVD 54 ILLEGALLY PARKED CAR
202100460022 8-2 22:25 MAIN ST N / MAX LEGGETT PKWY 4 53 TRAFFIC CRASH PERSON INJURED
202100460019 8-2 22:24 7700 MELVIN RD 63 DISPUTE
202100460012 8-2 22:20 600 OCEAN ST N 76 ASSIST OTHER AGENCY
202100460014 8-2 22:19 4500 BAYMEADOWS RD 1050 TRAFFIC STOP
202100460003 8-2 22:19 ZORA ST / OLD KINGS RD 16 ROAD OBSTRUCTION
202100460011 8-2 22:16 7900 MERRILL RD 76 ASSIST OTHER AGENCY
202100459911 8-2 22:15 5800 OAKLANE DR 6388 DISPUTE WITH ASSAULT
202100460000 8-2 22:14 4000 WALNUT ST 73 DRUG INVESTIGATION
202100460010 8-2 22:13 I95 N ON RAMP / UNIVERSITY BLVD W 96 ASSIST MOTORIST
202100459993 8-2 22:12 1400 25TH ST W 63 DISPUTE
202100460006 8-2 22:12 8600 BEACH BLVD 0 63 ARMED DISPUTE
202100459994 8-2 22:11 10000 GARDEN LAKE CT 9 THEFT
202100460002 8-2 22:09 REGENCY DR / BACALL RD 13 SUSPICIOUS PERSON
202100460001 8-2 22:08 13200 DUNN CREEK RD 60 SUICIDE OR ATTEMPT
202100459995 8-2 22:07 800 DUNN AVE 63 DISPUTE
202100459976 8-2 22:07 1900 LAURA ST N 22 DOMESTIC
202100459999 8-2 22:06 HENDRICKS AVE / ATLANTIC BLVD 1066 CANCEL
202182014683 8-2 22:04 900 PLAZA 76 ASSIST OTHER AGENCY
202100459992 8-2 22:03 1200 BROAD ST N 76 ASSIST OTHER AGENCY
202100459987 8-2 22:01 0(3500) BLK HECKSCHER DR 1050 TRAFFIC STOP
202100459978 8-2 21:59 13900 BARTRAM PARK BLVD 95ID IDENTITY THEFT
202100459972 8-2 21:58 ROUND LAKE RD / UNIVERSITY CLUB BLVD 3388 DISCHARGING FIREARM AT PERSON
202100459984 8-2 21:58 2900 REMINGTON ST 63 DISPUTE
202100459894 8-2 21:57 5900 TOWNSEND RD 9 THEFT
202100459975 8-2 21:57 PRITCHARD RD / JONES RD 19 ANIMAL INVESTIGATION
202100459985 8-2 21:56 LANE AVE S / MANOTAK AVE 1050 TRAFFIC STOP
202182014681 8-2 21:56 300 BLK SEMINOLE RD 38 TRAFFIC ASSIGNMENT
202100459982 8-2 21:55 I95 N ON RAMP / BUSCH DR 1050 TRAFFIC STOP
202100459974 8-2 21:53 1400 26TH ST E 13 SUSPICIOUS PERSON
202100459955 8-2 21:53 10500 DODD RD 11 ABANDONED VEHICLE
202100459979 8-2 21:53 GIRVIN/JOEANDY 1050 TRAFFIC STOP
202100459951 8-2 21:52 4900 BELFORT RD 76 ASSIST OTHER AGENCY
202100459924 8-2 21:52 4800 TOWN CENTER PKWY 68 CON GAME/FLIM FLAM
202100459973 8-2 21:51 800 4TH ST W 76 ASSIST OTHER AGENCY
202100459962 8-2 21:51 8100 DANDY AVE 60 SUICIDE OR ATTEMPT
202100459632 8-2 21:50 I295 S OFF RAMP / JTB W ON RAMP 4 AUTO CRASH
202100459605 8-2 21:50 N I95EXIT OLDSTAUG RP / OLD ST AUGUSTINE RD 16 ROAD OBSTRUCTION
202100459958 8-2 21:50 400 COMMERCE CENTER DR 13 SUSPICIOUS PERSON
202100459508 8-2 21:50 JTB W ON RAMP / I295 N OFF RAMP 4 AUTO CRASH
202100459970 8-2 21:50 100 FORSYTH ST E 5388 ASSAULT INVOLVING INJURY
202100459960 8-2 21:48 1800 DAVIS ST N 63 DISPUTE
202100459969 8-2 21:48 PARK ST / HAMILTON ST 1050 TRAFFIC STOP
202100459947 8-2 21:46 5500 MONCRIEF RD 2 63 DISPUTE IMPAIRED/INTOXICATED
202100459887 8-2 21:46 1300 DUNN AVE 8 MISSING PERSON
202100459954 8-2 21:46 5100 FREMONT ST 13 SUSPICIOUS PERSON
202100459904 8-2 21:44 9500 ILLINOIS ST 2288 DOMESTIC DISPUTE WITH/ASSAULT
202100459950 8-2 21:42 4900 BELFORT RD 76 ASSIST OTHER AGENCY
202100459957 8-2 21:42 UNIVERSITY BLVD N / ARLINGTON XY SERVICE RD 1050 TRAFFIC STOP
202100459934 8-2 21:40 5900 YOUNGERMAN CIR E 13 SUSPICIOUS PERSON
202100459953 8-2 21:38 45TH ST W / AVENUE B 1050 TRAFFIC STOP
202100459932 8-2 21:36 1100 WOODRUFF AVE 63 DISPUTE
202100459944 8-2 21:35 11900 BEACH BLVD 57 PERSON CALLING FOR HELP
202100459946 8-2 21:35 3300 DIGNAN ST 76 ASSIST OTHER AGENCY
202100459941 8-2 21:35 3200 RED OAK DR 1066 CANCEL
202100459942 8-2 21:33 HECKSCHER DR / I295 N OFF RAMP 1050 TRAFFIC STOP
202100459875 8-2 21:32 SOUTHSIDE BLVD / DEERWOOD PARK BLVD 4 AUTO CRASH
202100459928 8-2 21:32 2800 EMILY LN 16 ROAD OBSTRUCTION
202182014676 8-2 21:32 200 ROYAL PALMS DR 13 SUSPICIOUS PERSON
202100459937 8-2 21:31 300 ZOO PKWY 1050 TRAFFIC STOP
202100459893 8-2 21:31 5200 JANICE CIR S 27 MENTALLY ILL PERSON
202100459885 8-2 21:30 300 CARAVAN CIR 63 DISPUTE
202100459935 8-2 21:30 9700 TOUCHTON RD 76 ASSIST OTHER AGENCY
202100459936 8-2 21:29 3000 VENUS ST 1050 TRAFFIC STOP
202100459933 8-2 21:29 8400 SEVILLE AVE 76 ASSIST OTHER AGENCY
202100459931 8-2 21:28 5800 EDENFIELD RD 0 63 ARMED DISPUTE
202100459930 8-2 21:27 12600 BEACH BLVD 1066 CANCEL
202100459914 8-2 21:25 2800 UNIVERSITY BLVD W 1066 CANCEL
202100459927 8-2 21:24 MONCRIEF RD / EDGEWOOD AVE W 1050 TRAFFIC STOP
202100459923 8-2 21:22 BEAVER ST W / LINE ST 1050 TRAFFIC STOP
202182014675 8-2 21:22 7TH ST BEACH ACCESS 54 ILLEGALLY PARKED CAR
202100459922 8-2 21:21 OWEN AVE / MONCRIEF RD W 1050 TRAFFIC STOP
202100459888 8-2 21:20 3100 PLUM ST 64 NOISE COMPLAINT
202100459912 8-2 21:19 4200 BALTIMORE ST 1066 CANCEL
202100459917 8-2 21:18 HECKSCHER DR / RAMOTH DR 1050 TRAFFIC STOP
202100459916 8-2 21:18 BLANDING BLVD / SAN JUAN AVE 1050 TRAFFIC STOP
202100459905 8-2 21:10 5800 UNIVERSITY BLVD W 10R VEHICLE THEFT RECOVERY
202100459867 8-2 21:10 10600 OLD KINGS RD 13 SUSPICIOUS PERSON
202100459860 8-2 21:09 11500 OAKLAWN RD 22 DOMESTIC
202100459901 8-2 21:06 I10 AT MCDUFF AVE 88P ASSAULT IN PROGRESS
202100459831 8-2 21:05 1300 SPEARING ST 3 HIT AND RUN CRASH
202100459886 8-2 21:04 400 CATHERINE ST 37 UNVERIFIED 911 CALL
202100459750 8-2 21:04 4900 BELFORT RD 26EB PERSON WITH EXTREME BEHAVIOR
202100459898 8-2 21:04 7300 MERRILL RD 22 DOMESTIC
202100459899 8-2 21:04 ZOO PKWY / HAYDON RD 1050 TRAFFIC STOP
202100459695 8-2 21:03 12100 BEACH BLVD 9 THEFT
202100459895 8-2 21:03 6900 WILEY RD 57 PERSON CALLING FOR HELP
202100459897 8-2 21:03 HECKSCHER DR / NEW BERLIN RD E 1050 TRAFFIC STOP
202100459865 8-2 21:03 8100 LIBRA CT 63 DISPUTE
202100459890 8-2 20:59 6800 CISCO GARDENS RD 2288 DOMESTIC DISPUTE WITH/ASSAULT
202100459891 8-2 20:58 5100 WESTCHASE CT 63 DISPUTE
202100459869 8-2 20:58 12100 BEACH BLVD 63 DISPUTE
202100459889 8-2 20:57 4300 PILGRIM WAY 63 DISPUTE
202100459843 8-2 20:57 8200 DAMES POINT CROSSING BLVD N 13 SUSPICIOUS PERSON
202100459883 8-2 20:55 400 61ST ST W 3 HIT AND RUN CRASH
202100459884 8-2 20:55 4500 COLLINS RD 2 63 DISPUTE IMPAIRED/INTOXICATED
202100459882 8-2 20:52 118TH ST / SEABOARD AVE 1050 TRAFFIC STOP
202100459881 8-2 20:52 5500 MONCRIEF RD 9J THEFT JUST OCCURRED
202100459877 8-2 20:51 5100 FOXBORO RD 22 DOMESTIC
202100459870 8-2 20:50 9100 ADAMS AVE 63 DISPUTE
202100459799 8-2 20:49 10900 ATLANTIC BLVD 3 HIT AND RUN CRASH
202182014672 8-2 20:48 900 OCEAN BLVD 9 THEFT
202100459873 8-2 20:48 45TH ST W / MONCRIEF RD 73 DRUG INVESTIGATION
202100459859 8-2 20:47 8600 BAYMEADOWS RD 63 DISPUTE
202100459858 8-2 20:45 1100 WOODRUFF AVE 63 DISPUTE
202100459864 8-2 20:45 1400 DUNN AVE 22 DOMESTIC
202100459854 8-2 20:44 2000 DELLWOOD AVE 2 22 DOMESTIC DISTURBANCE
202100459684 8-2 20:44 4400 PHILIPS HWY 22 DOMESTIC
202100459844 8-2 20:41 4500 MONCRIEF RD W 10 VEHICLE THEFT
202100459850 8-2 20:41 1100 BARNETT ST 3 HIT AND RUN CRASH
202100459863 8-2 20:41 2100 DAVIS RD 63 DISPUTE
202100459862 8-2 20:40 MYRTLE AVE N / 13TH ST W 1050 TRAFFIC STOP
202100459798 8-2 20:39 500 JEFFERSON ST N 37 UNVERIFIED 911 CALL
202100459740 8-2 20:38 4000 HENDRICKS AVE 19 ANIMAL INVESTIGATION
202100459857 8-2 20:38 I295 SB/I95 SB 1050 TRAFFIC STOP
202100459856 8-2 20:37 DUNN AVE / REGENCY DR 1050 TRAFFIC STOP
202100459747 8-2 20:37 7300 BOYSENBERRY LN N 19 ANIMAL INVESTIGATION
202100459812 8-2 20:35 9300 103RD ST 64 NOISE COMPLAINT
202100459849 8-2 20:33 SKIPJACK WAY S / LAKE MANDARIN CIR S 63 DISPUTE
202100459846 8-2 20:32 7900 BLANDING BLVD 63 DISPUTE
202100459753 8-2 20:32 300 CHURCH ST E 2 63 DISPUTE IMPAIRED/INTOXICATED
202100459847 8-2 20:31 LEM TURNER RD / PERCY RD 1050 TRAFFIC STOP
202100459842 8-2 20:30 1400 PEARL ST 60 SUICIDE OR ATTEMPT
202100459837 8-2 20:28 2200 DANSON ST 63 DISPUTE
202100459841 8-2 20:28 I295 SB/ AIRPORT 1050 TRAFFIC STOP
202100459622 8-2 20:27 7000 CHRISTOPHER ROBIN DR 63 DISPUTE
202100459759 8-2 20:26 3400 RIBAULT SCENIC DR 63 DISPUTE
202100459835 8-2 20:26 HECKSCHER DR 38 TRAFFIC ASSIGNMENT
202100459832 8-2 20:26 1100 MELSON AVE 22 DOMESTIC
202100459824 8-2 20:25 5800 EDENFIELD RD 63 DISPUTE
202100459809 8-2 20:24 8800 WESTON LIVING WAY 19 ANIMAL INVESTIGATION
202100459819 8-2 20:24 4300 MARSH HAWK DR S 22 DOMESTIC
202100459714 8-2 20:23 11000 CREEKWOOD DR 22 DOMESTIC
202100459814 8-2 20:23 800 CALVERT ST 1066 CANCEL
202100459806 8-2 20:21 7200 ELWOOD AVE 95 FRAUD/FORGED (CHECK, ID, RX)
202100459813 8-2 20:21 1800 EDGEWOOD AVE N 13 SUSPICIOUS PERSON
202100459811 8-2 20:21 11900 MANDARIN RD 1066 CANCEL
202100459823 8-2 20:20 JAMMES RD / WILSON BLVD 16 ROAD OBSTRUCTION
202100459822 8-2 20:20 MYRTLE AVE N / MARTIN LUTHER KING JR PKWY 1050 TRAFFIC STOP
202100459821 8-2 20:20 PERRY ST / GOLFAIR BLVD 1050 TRAFFIC STOP
202100459818 8-2 20:18 12100 LEM TURNER RD 63 DISPUTE
202100459817 8-2 20:17 HECKSCHER DR 38 TRAFFIC ASSIGNMENT
202100459778 8-2 20:17 8100 BEAVER ST W 63 DISPUTE
202100459766 8-2 20:17 8000 NORMANDY BLVD 63 DISPUTE
202100459796 8-2 20:15 6600 EXECUTIVE PARK CT N 63 DISPUTE
202100459776 8-2 20:13 8400 NEW KINGS RD 2 22 DOMESTIC DISTURBANCE
202100459808 8-2 20:12 5400 CEDAR POINT RD 96 ASSIST MOTORIST
202100459802 8-2 20:11 FAIRFAX ST / KINGS RD 16 ROAD OBSTRUCTION
202100459801 8-2 20:10 NEW BERLIN RD E / HECKSCHER DR 1050 TRAFFIC STOP
202100459768 8-2 20:10 ATLANTIC BLVD / MONUMENT RD 3 HIT AND RUN CRASH
202100459788 8-2 20:10 8600 NUSSBAUM DR 22 DOMESTIC
202100459792 8-2 20:07 800 FRANKLIN ST 37 UNVERIFIED 911 CALL
202100459756 8-2 20:06 1700 DOGWOOD PL 54 ILLEGALLY PARKED CAR
202100459794 8-2 20:06 500 DAVIS ST N 57 PERSON CALLING FOR HELP
202100459795 8-2 20:06 I295 N OFF RAMP / ALTA DR 1050 TRAFFIC STOP
202100459475 8-2 20:05 JTB W OFF RAMP / GATE PKWY 4 AUTO CRASH
202100459433 8-2 20:05 OLD ST AUGUSTINE RD / I295 S OFF RAMP 16 ROAD OBSTRUCTION
202100459771 8-2 20:03 5200 ATTLEBORO ST 21C BURGLARY CONVEYANCE
202100459791 8-2 20:03 IVEY/BRENTWOOD 1050 TRAFFIC STOP
202100459789 8-2 20:02 BLANDING BLVD / CEDAR PARK LN 16 ROAD OBSTRUCTION
202100459757 8-2 20:00 1500 STIMSON ST 13 SUSPICIOUS PERSON
202100459784 8-2 19:57 I295 EXPY N / DAMES POINT BRG N 1050 TRAFFIC STOP
202100459428 8-2 19:56 I95 N OFF RAMP / I10 W ON RAMP 3 HIT AND RUN CRASH
202100459775 8-2 19:55 3000 EDGEWOOD AVE W 63 DISPUTE
202100459678 8-2 19:54 1500 WALKER LN 2 63 DISPUTE IMPAIRED/INTOXICATED
202100459565 8-2 19:54 8800 BEACH BLVD 4 AUTO CRASH
202100459780 8-2 19:53 1400 5TH ST W 1050 TRAFFIC STOP
202100459777 8-2 19:53 GROTHE ST / BARNETT ST 1050 TRAFFIC STOP
202100459680 8-2 19:53 SAN JOSE BLVD / LORETTO RD 4 AUTO CRASH
202100459722 8-2 19:52 9800 ATLANTIC BLVD 63 DISPUTE
202100459595 8-2 19:52 1900 JAMMES RD 95ID IDENTITY THEFT
202100459773 8-2 19:51 1600 SILVER ST 76 ASSIST OTHER AGENCY
202100459763 8-2 19:51 3200 JUSTINA RD 22 DOMESTIC
202100459769 8-2 19:49 12TH ST W / PEARL ST N 1050 TRAFFIC STOP
202100459762 8-2 19:48 11100 BRANAN FIELD RD 13 SUSPICIOUS PERSON
202100459713 8-2 19:48 3000 HERRING RD 95ID IDENTITY THEFT
202100459764 8-2 19:48 LEM TURNER RD / BROWARD RD 16 ROAD OBSTRUCTION
202100459542 8-2 19:46 6200 WILSON BLVD 63 DISPUTE
202100459761 8-2 19:46 3200 CESERY BLVD 19 ANIMAL INVESTIGATION
202100459765 8-2 19:46 PERDUE RD / AIRPORT CENTER DR E 1050 TRAFFIC STOP
202100459710 8-2 19:46 JAMMES RD / SAGE DR 19 ANIMAL INVESTIGATION
202100459560 8-2 19:42 I10 AT MCDUFF AVE 96 ASSIST MOTORIST
202100459754 8-2 19:41 DUNN AVE / HARTS RD 1050 TRAFFIC STOP
202100459737 8-2 19:40 MORSE AVE / SKYLER JEAN DR 4 AUTO CRASH
202100459751 8-2 19:39 I295 EXPY N / DAMES POINT BRG N 1050 TRAFFIC STOP
202100459746 8-2 19:39 11400 KITTRELL PINES TER 22 DOMESTIC
202100459748 8-2 19:38 43RD ST E / MAIN ST N 1050 TRAFFIC STOP
202100459744 8-2 19:37 3000 FAYE RD 96 ASSIST MOTORIST
202100459699 8-2 19:32 3600 JULIET LEIA CIR S 56 JUVENILE COMPLAINT
202100459704 8-2 19:31 7600 TIMBERLIN PARK BLVD 63 DISPUTE
202100459742 8-2 19:31 OLD MIDDLEBURG RD N / WILSON BLVD 1050 TRAFFIC STOP
202100459537 8-2 19:31 BEACH BLVD / BEACHWOOD BLVD 4 AUTO CRASH
202182014669 8-2 19:31 100 BLK ICW ATLANTIC BRG E 96 ASSIST MOTORIST
202100459717 8-2 19:30 I95 N OFF RAMP / UNION ST W 13 SUSPICIOUS PERSON
202100459674 8-2 19:28 4400 PHILIPS HWY 22 DOMESTIC
202100459738 8-2 19:27 I95SB/SAN MARCO 1050 TRAFFIC STOP
202100459735 8-2 19:25 MYRTLE AVE N / MARTIN LUTHER KING JR PKWY 1050 TRAFFIC STOP
202100459734 8-2 19:25 ZOO PKWY / NEW BERLIN RD 1050 TRAFFIC STOP
202100459698 8-2 19:24 13100 BROXTON BAY DR 9 THEFT
202100459730 8-2 19:23 I295 EXPY N / DAMES POINT BRG N 1050 TRAFFIC STOP
202100459667 8-2 19:23 600 BEAVER ST W 63 DISPUTE
202100459700 8-2 19:23 10100 103RD ST 0 13 ARMED SUSPICIOUS PERSON
202100459520 8-2 19:23 4600 TOWN CENTER PKWY 4 AUTO CRASH
202100459716 8-2 19:22 5700 CEDAR PARK LN 22 DOMESTIC
202100459727 8-2 19:21 1000 EDGEWOOD AVE N 76 ASSIST OTHER AGENCY
202100459676 8-2 19:21 7400 SWEET ROSE LN 7 DEAD PERSON
202100459675 8-2 19:21 10200 WOOD DOVE WAY 2 22 DOMESTIC DISTURBANCE
202100459718 8-2 19:20 15100 RUSSELL BRIDGE DR 22 DOMESTIC
202100459723 8-2 19:20 KINGS RD / FLAG ST 1050 TRAFFIC STOP
202100459701 8-2 19:20 I95 N ON RAMP / 8TH ST W 13 SUSPICIOUS PERSON
202100459538 8-2 19:20 5800 MT CARMEL TER 63 DISPUTE
202100459703 8-2 19:19 2300 5TH AVE 20 PROWLER
202100459671 8-2 19:18 1600 RUTLEDGE AVE 9 THEFT
202100459712 8-2 19:17 14100 CRYSTAL COVE DR 1050 TRAFFIC STOP
202100459711 8-2 19:17 10TH ST W / PALAFOX ST 13 SUSPICIOUS PERSON
202100459706 8-2 19:15 LANE AVE S / TORRES DR 96 ASSIST MOTORIST
202100459702 8-2 19:15 31ST ST W / MONCRIEF RD 1050 TRAFFIC STOP
202100459697 8-2 19:14 3100 SPRING PARK RD 6388 DISPUTE WITH ASSAULT
202100459693 8-2 19:13 GALE CT / KING ST 4 AUTO CRASH
202100459661 8-2 19:11 10900 BEACH BLVD 22 DOMESTIC
202100459692 8-2 19:10 ENDICOTT LN / COBBLESTONE CIR E 19 ANIMAL INVESTIGATION
202100459691 8-2 19:10 45TH ST W / MONCRIEF RD 1050 TRAFFIC STOP
202100459687 8-2 19:09 2200 EDGEWOOD AVE W 76 ASSIST OTHER AGENCY
202100459682 8-2 19:08 11000 OLD ST AUGUSTINE RD 63 DISPUTE
202100459653 8-2 19:07 4400 SEABREEZE DR 2 63 DISPUTE IMPAIRED/INTOXICATED
202100459686 8-2 19:06 5200 EMERSON ST 13 SUSPICIOUS PERSON
202100459685 8-2 19:06 10900 KEY CORAL DR 22 DOMESTIC
202100459320 8-2 19:06 I295 S OFF RAMP / MAIN ST N 96 ASSIST MOTORIST
202100459683 8-2 19:05 ZOO PKWY / I295 S OFF RAMP 1050 TRAFFIC STOP
202100459662 8-2 19:05 11500 KEY BISCAYNE DR 27 MENTALLY ILL PERSON
202100459608 8-2 19:05 300 FORT MILTON DR 9 THEFT
202100459659 8-2 19:04 1800 HUBBARD ST 14CP VANDALISM CONVEYANCE IN PROGRESS
202100459430 8-2 19:04 I95 S OFF RAMP / BAYMEADOWS RD 4 AUTO CRASH
202100459679 8-2 19:03 LANE AVE S / LENOX AVE 1050 TRAFFIC STOP
202100459656 8-2 19:02 THACKER AVE / LASALLE ST 16 ROAD OBSTRUCTION
202100459664 8-2 18:58 1400 BRADY ST 22 DOMESTIC
202100459670 8-2 18:57 2800 HADDOCK RD 29 WIRE DOWN
202100459666 8-2 18:56 POINT MEADOWS WAY / POINT MEADOWS DR 60 SUICIDE OR ATTEMPT
202100459665 8-2 18:56 10100 SAWPIT RD 88J ASSAULT JUST OCCURRED
202100459663 8-2 18:53 ZOO PKWY / NEW BERLIN RD 1050 TRAFFIC STOP
202100459660 8-2 18:51 FT CAROLINE RD / HARTSFIELD RD 1050 TRAFFIC STOP
202100459650 8-2 18:50 LANE AVE S / NORMANDY BLVD 16 ROAD OBSTRUCTION
202100459648 8-2 18:48 1000 GOLFAIR BLVD 63 DISPUTE
202100459654 8-2 18:48 ADAMS ST W / JEFFERSON ST N 4 53 TRAFFIC CRASH PERSON INJURED
202100459639 8-2 18:47 9600 MACARTHUR CT S 2288 DOMESTIC DISPUTE WITH/ASSAULT
202100459651 8-2 18:47 MARTIN LUTHER KING JR PKWY / I95 N OFF RAMP 4 53 TRAFFIC CRASH PERSON INJURED
202100459624 8-2 18:46 LORETTO RD / SAN JOSE BLVD 4 AUTO CRASH
202100459555 8-2 18:46 11100 BEACH BLVD 88 ASSAULT
202100459646 8-2 18:45 BOWDEN RD / PRATHER DR 60 SUICIDE OR ATTEMPT
202100459645 8-2 18:44 200 STATE ST W 60 SUICIDE OR ATTEMPT
202100459644 8-2 18:44 I295 N OFF RAMP / NEW KINGS RD 19 ANIMAL INVESTIGATION
202100459457 8-2 18:44 I295 S OFF RAMP / BEACH BLVD 4 AUTO CRASH
202100459642 8-2 18:44 14900 MAX LEGGETT PKWY 63 DISPUTE
202100459569 8-2 18:44 ARGYLE FOREST BLVD / CHESWICK OAK AVE 56 JUVENILE COMPLAINT
202100459641 8-2 18:43 9500 APPLECROSS RD 63 DISPUTE
202100459635 8-2 18:42 I95 S ON RAMP / ZOO PKWY 0 13 ARMED SUSPICIOUS PERSON
202100459631 8-2 18:39 1000 EDGEWOOD AVE N 76 ASSIST OTHER AGENCY
202100459619 8-2 18:39 7700 LEM TURNER RD 63 DISPUTE
202100459630 8-2 18:38 KINGSBURY ST / LAKE SHORE BLVD 1050 TRAFFIC STOP
202100459627 8-2 18:37 6300 WESCONNETT BLVD 64 NOISE COMPLAINT
202100459618 8-2 18:37 I95 N OFF RAMP / PHILIPS HWY 16 ROAD OBSTRUCTION
202100459604 8-2 18:37 6000 FT CAROLINE RD 9J THEFT JUST OCCURRED
202100459609 8-2 18:36 800 ST CLAIR ST 63 DISPUTE
202100459626 8-2 18:36 LEM TURNER RD / PALMDALE ST 3 HIT AND RUN CRASH
202100459615 8-2 18:35 5500 SOUTEL DR 63 DISPUTE
202100459502 8-2 18:34 7900 GEORGIA JACK CT 22 DOMESTIC
202100459553 8-2 18:33 3100 FOREST BLVD 14R VANDALISM RESIDENCE
202100459478 8-2 18:32 I295 S OFF RAMP / MAIN ST N 4 AUTO CRASH
202100459324 8-2 18:32 I295 N OFF RAMP / DUVAL RD 4 AUTO CRASH
202100459312 8-2 18:32 I295 WBWY N ON RAMP / I95 EXPY S 4 AUTO CRASH
202100459276 8-2 18:32 I95 N OFF RAMP / MAX LEGGETT PKWY 4 AUTO CRASH
202100459245 8-2 18:32 I95 S OFF RAMP / AIRPORT RD 4 AUTO CRASH
202100459574 8-2 18:32 10300 WESTMAR RD 2288 DOMESTIC DISPUTE WITH/ASSAULT
202100459617 8-2 18:31 1400 12TH ST E 63 DISPUTE
202100459607 8-2 18:31 ROOSEVELT BLVD / MCDUFF AVE S 63 DISPUTE
202100459497 8-2 18:30 8000 DICKIE DR 95 FRAUD/FORGED (CHECK, ID, RX)
202100459492 8-2 18:30 8000 MCGLOTHLIN ST 76 ASSIST OTHER AGENCY
202100459613 8-2 18:29 MARTIN LUTHER KING JR PKWY / MYRTLE AVE N 4 53 TRAFFIC CRASH PERSON INJURED
202100459616 8-2 18:28 NOR/ALDERSIDE 1050 TRAFFIC STOP
202100459588 8-2 18:27 3300 CLAIRE LN 4 AUTO CRASH
202100459614 8-2 18:27 SOUTHSIDE BLVD / ATLANTIC BLVD 1050 TRAFFIC STOP
202100459576 8-2 18:25 15600 FLOUNDER RD 13 SUSPICIOUS PERSON
202100459610 8-2 18:25 I95 S OFF RAMP / 8TH ST W 16 ROAD OBSTRUCTION
202100459600 8-2 18:23 BROAD ST N / WATER ST 4 AUTO CRASH
202100459601 8-2 18:23 UNIVERSITY BLVD N / MERRILL RD 91 TRAFFIC LIGHT/RR CROSSING MALFUNCTION
202100459477 8-2 18:22 103RD ST / OLD MIDDLEBURG RD N 91 TRAFFIC LIGHT/RR CROSSING MALFUNCTION
202100459456 8-2 18:22 8600 BAYMEADOWS RD E 0 63 ARMED DISPUTE
202100459459 8-2 18:22 103RD ST / RICKER RD 91 TRAFFIC LIGHT/RR CROSSING MALFUNCTION
202100459399 8-2 18:21 NORMANDY BLVD / BLAIR RD 91 TRAFFIC LIGHT/RR CROSSING MALFUNCTION
202100459546 8-2 18:21 12500 REMLER DR W 19 ANIMAL INVESTIGATION
202100459563 8-2 18:20 EMERSON ST / PHILIPS HWY 13 SUSPICIOUS PERSON
202100459487 8-2 18:19 3400 STANLEY ST 50 FOUND/ABANDONED PROPERTY
202100459485 8-2 18:17 7600 INDIAN LAKES DR 21R BURGLARY RESIDENCE
202100459591 8-2 18:16 10100 BEACH BLVD 76 ASSIST OTHER AGENCY
202100007195 8-2 18:16 100 U N F DR 37 UNVERIFIED 911 CALL
202100459594 8-2 18:15 600 EDGEWOOD AVE N 38 TRAFFIC ASSIGNMENT
202100459590 8-2 18:15 1600 14TH ST W 22 DOMESTIC
202100459586 8-2 18:12 1800 LINDBERG DR 9T THEFT (TELESERVE)
202100459585 8-2 18:11 9500 NORFOLK BLVD 13 SUSPICIOUS PERSON
202100459580 8-2 18:11 10900 BAYMEADOWS RD 4 AUTO CRASH
202100459568 8-2 18:11 2600 ART MUSEUM DR 4 AUTO CRASH
202100459571 8-2 18:11 BELFORT RD / TOUCHTON RD 13 SUSPICIOUS PERSON
202100459579 8-2 18:11 4600 TOWN CENTER PKWY 76 ASSIST OTHER AGENCY
202100459410 8-2 18:09 2100 DOCTOR ROY BAKER ST 9 THEFT
202100459582 8-2 18:07 1000 HOOD AVE 12 RECKLESS DRIVER
202100459577 8-2 18:06 NB 95/I10 96 ASSIST MOTORIST
202100459572 8-2 18:03 800 REFLECTION COVE RD E 95IDT IDENTITY THEFT TELESERVE
202100459573 8-2 18:02 MONCRIEF RD / GLENVALE RD 1050 TRAFFIC STOP
202100459570 8-2 18:00 MONCRIEF RD / MARTIN LUTHER KING JR PKWY 1050 TRAFFIC STOP